Location: Dreilärchen
(47.9312°N, 8.6113°E)
Time: 20:29:45
(UTC+00:00)

SME Rocket - Pass Details

Date: 26 May 2022
Orbit: 551 x 2650 km, 99.9° (Epoch: 03 July)

Event Time Altitude Azimuth Distance (km) Brightness Sun altitude
Exits shadow 01:24:32 28° 221° (SW) 1,165 3.9 -15.8°
Maximum altitude 01:25:59 37° 264° (W) 1,015 3.9 -15.6°
Drops below altitude 10° 01:30:37 10° 332° (NNW) 2,412 6.5 -15.2°
Sets 01:33:34 0° 340° (NNW) 3,620 7.6 -15.0°
